CDT,Max TemperatureF,Mean TemperatureF,Min TemperatureF,Max Dew PointF,MeanDew PointF,Min DewpointF,Max Humidity, Mean Humidity, Min Humidity, Max Sea Level PressureIn, Mean Sea Level PressureIn, Min Sea Level PressureIn, Max VisibilityMiles, Mean VisibilityMiles, Min VisibilityMiles, Max Wind SpeedMPH, Mean Wind SpeedMPH, Max Gust SpeedMPH,PrecipitationIn, CloudCover, Events, WindDirDegrees
2012-10-1,75,69,63,73,65,59,93,86,78,29.75,29.61,29.49,10,10,4,13,6,18,0.03,8,Rain,246
2012-10-2,79,69,59,61,58,52,97,69,40,30.01,29.86,29.75,10,9,2,13,3,,0.00,2,,294
2012-10-3,82,70,57,64,59,54,93,68,43,30.15,30.07,30.01,10,10,7,15,2,,0.00,1,,124
2012-10-4,86,73,59,66,60,57,97,69,40,30.25,30.20,30.16,10,6,1,9,1,,0.00,3,,53
2012-10-5,87,73,58,66,61,57,100,70,39,30.18,30.09,30.01,10,8,2,8,1,10,0.00,0,,146
2012-10-6,84,72,60,66,62,57,93,74,55,30.06,30.02,29.96,10,9,6,14,5,20,0.00,3,,350
2012-10-7,70,61,52,55,52,47,86,71,55,30.16,30.11,30.07,10,10,10,15,8,20,0.00,5,,360
2012-10-8,70,60,49,51,48,45,86,67,47,30.18,30.13,30.10,10,10,10,14,4,17,0.00,1,,354
2012-10-9,75,60,44,57,50,42,93,68,43,30.18,30.11,30.04,10,10,9,8,2,,0.00,0,,356
2012-10-10,85,69,52,66,59,50,100,74,47,30.19,30.14,30.10,10,9,4,12,2,15,0.00,1,,350
2012-10-11,85,71,56,66,60,54,100,74,47,30.27,30.20,30.17,10,7,1,8,1,,0.00,0,,170
2012-10-12,85,72,58,66,60,57,100,72,44,30.29,30.23,30.19,10,5,0,9,1,,0.00,3,Fog,101
2012-10-13,86,72,57,66,60,55,100,73,45,30.26,30.20,30.11,10,6,0,15,4,21,0.00,2,Fog,155
2012-10-14,85,74,63,70,65,63,100,78,55,30.17,30.08,29.99,10,6,0,13,4,16,T,3,Fog,192
2012-10-15,82,69,55,70,62,50,93,64,35,30.03,29.99,29.94,10,10,4,15,4,,0.06,3,Rain-Thunderstorm,318
2012-10-16,79,65,50,59,53,45,93,62,30,30.02,29.95,29.88,10,10,10,14,1,29,0.00,0,,137
2012-10-17,82,67,52,68,60,49,93,72,51,29.90,29.82,29.75,10,10,10,18,7,23,0.00,3,,169
2012-10-18,81,66,51,72,58,40,93,58,23,29.93,29.82,29.72,10,10,10,15,6,21,0.01,3,Rain-Thunderstorm,316
2012-10-19,78,62,46,49,42,32,93,56,19,29.94,29.91,29.84,10,10,10,21,5,28,0.00,0,,272
2012-10-20,81,63,44,53,45,35,92,58,23,30.03,29.97,29.92,10,10,10,9,1,,0.00,0,,340
2012-10-21,83,65,46,60,51,44,93,62,31,30.12,30.08,30.01,10,10,10,10,2,,0.00,0,,130
2012-10-22,83,66,48,58,50,46,93,64,34,30.17,30.12,30.06,10,8,1,12,1,17,0.00,1,,87
2012-10-23,85,68,50,65,57,48,96,70,44,30.14,30.07,30.02,10,10,8,8,1,18,0.00,1,,106
2012-10-24,83,71,58,64,60,57,100,74,47,30.14,30.07,30.00,10,4,0,8,1,14,0.00,1,Fog,105
2012-10-25,86,72,57,65,60,56,97,71,44,30.04,29.99,29.94,10,5,0,8,1,,0.00,3,Fog,55
2012-10-26,85,70,54,66,60,48,100,72,44,30.04,29.98,29.91,10,5,0,18,5,26,0.00,5,Fog,336
2012-10-27,54,50,46,48,44,42,86,76,66,30.06,30.03,29.99,10,10,10,16,9,22,0.00,7,,337
2012-10-28,66,54,42,41,36,32,86,58,30,30.14,30.06,30.01,10,10,10,21,10,29,0.00,0,,327
2012-10-29,63,52,40,35,32,27,79,52,25,30.21,30.12,30.06,10,10,10,21,8,28,0.00,0,,328
2012-10-30,68,52,36,40,34,31,89,59,28,30.09,30.05,29.97,10,10,10,18,6,22,0.00,0,,299
2012-10-31,78,61,43,56,48,39,84,60,35,30.05,30.00,29.94,10,10,10,14,4,18,0.00,2,,271